CW9659 Weather Reports


time (UTC)temp
C
wind
direction
speed
KPH
gust
KPH
rain 1hr
cm
rain 24hr
cm
rain mn
cm
humidity
%
barometer
mb
20260504014904 12 142 0.0 1.6 0.00 0.00 0.00 61 1014.8
20260504014403 12 132 0.0 1.6 0.00 0.03 0.00 59 1014.7
20260504013903 13 131 0.0 1.6 0.00 0.03 0.00 58 1014.7
20260504012903 13 130 0.0 1.6 0.00 0.03 0.00 57 1014.5
20260504012404 13 128 0.0 1.6 0.00 0.03 0.00 56 1014.5
20260504011904 13 136 0.0 1.6 0.00 0.03 0.00 55 1014.6
20260504011403 13 136 0.0 1.6 0.00 0.03 0.00 54 1014.6
20260504010904 13 136 0.0 1.6 0.00 0.03 0.00 55 1014.6
20260504010403 14 144 0.0 0.0 0.00 0.03 0.00 53 1014.6
20260504005903 14 144 0.0 0.0 0.00 0.03 0.00 53 1014.6
20260504005403 15 144 0.0 0.0 0.00 0.03 0.00 52 1014.6
20260504004403 15 152 0.0 1.6 0.00 0.03 0.00 51 1014.4
20260504003903 15 160 0.0 0.0 0.00 0.03 0.00 50 1014.4
20260504003404 15 172 0.0 1.6 0.00 0.03 0.00 50 1014.5
20260504002903 15 185 0.0 1.6 0.00 0.03 0.00 49 1014.5
20260504002403 15 167 0.0 1.6 0.00 0.03 0.00 49 1014.5
20260504001903 15 158 0.0 1.6 0.00 0.03 0.00 49 1014.5
20260504000904 16 173 0.0 3.2 0.00 0.03 0.00 48 1014.6
20260504000403 16 167 0.0 3.2 0.00 0.03 0.00 48 1014.7
20260503235904 16 181 0.0 1.6 0.00 0.03 0.00 47 1014.7
20260503235404 16 177 3.2 4.8 0.00 0.03 0.00 46 1014.5
20260503234904 16 172 1.6 4.8 0.00 0.05 0.00 47 1014.6
20260503234403 16 161 1.6 4.8 0.00 0.05 0.00 47 1014.6
20260503233403 16 197 3.2 8.0 0.00 0.05 0.00 45 1014.8
20260503232903 17 182 3.2 4.8 0.00 0.05 0.00 44 1014.9
20260503232403 17 183 4.8 4.8 0.00 0.05 0.00 44 1015.0
20260503231903 17 194 3.2 11.3 0.00 0.05 0.00 44 1015.1
20260503231403 17 161 3.2 9.7 0.00 0.05 0.00 45 1015.1
20260503230903 17 166 1.6 4.8 0.00 0.05 0.00 44 1015.1
20260503230403 17 208 3.2 8.0 0.00 0.05 0.00 42 1015.2
20260503225904 17 191 3.2 9.7 0.00 0.05 0.00 42 1015.6
20260503225403 17 243 0.0 1.6 0.00 0.05 0.00 44 1015.7
20260503224903 17 235 3.2 8.0 0.00 0.05 0.00 43 1015.8
20260503224403 17 205 1.6 8.0 0.00 0.05 0.00 44 1015.8
20260503223904 17 191 3.2 4.8 0.00 0.05 0.00 44 1015.8
20260503223403 17 219 1.6 4.8 0.00 0.05 0.00 43 1015.8
20260503222904 17 163 1.6 4.8 0.00 0.05 0.00 43 1015.8
20260503222403 17 202 1.6 4.8 0.00 0.05 0.00 44 1015.8
20260503221403 17 198 3.2 9.7 0.00 0.05 0.00 42 1016.0
20260503220403 18 198 1.6 9.7 0.00 0.05 0.00 41 1016.2
20260503215903 18 196 3.2 8.0 0.00 0.05 0.00 41 1016.3
20260503214904 19 202 4.8 8.0 0.00 0.05 0.00 40 1016.4
20260503214404 19 255 0.0 3.2 0.00 0.05 0.00 39 1016.4
20260503213904 19 224 3.2 9.7 0.00 0.05 0.00 41 1016.7
20260503213403 19 190 3.2 4.8 0.00 0.05 0.00 40 1016.7
20260503212403 19 155 3.2 8.0 0.00 0.05 0.00 40 1016.7
20260503211903 19 147 0.0 4.8 0.00 0.05 0.00 41 1016.8
20260503211404 19 203 1.6 4.8 0.00 0.05 0.00 42 1016.9
20260503210903 19 207 1.6 4.8 0.00 0.05 0.00 41 1016.9
20260503210404 19 217 3.2 11.3 0.00 0.05 0.00 40 1017.0
20260503205904 20 192 4.8 12.9 0.00 0.05 0.00 40 1017.1
20260503205403 20 163 0.0 4.8 0.00 0.05 0.00 40 1017.1
20260503204904 19 232 0.0 3.2 0.00 0.05 0.00 40 1017.2
20260503204403 19 254 1.6 4.8 0.00 0.05 0.00 41 1017.3
20260503203403 19 218 1.6 4.8 0.00 0.05 0.00 41 1017.7
20260503202903 19 217 0.0 1.6 0.00 0.05 0.00 43 1017.7
20260503202403 18 127 1.6 4.8 0.00 0.05 0.00 38 1017.9
20260503201903 19 229 1.6 4.8 0.00 0.05 0.00 40 1017.9
20260503201403 19 147 1.6 11.3 0.00 0.05 0.00 40 1018.1
20260503200903 19 196 4.8 9.7 0.00 0.05 0.00 38 1018.2
20260503200403 18 16 0.0 8.0 0.00 0.05 0.00 39 1018.3
20260503195903 18 288 1.6 3.2 0.00 0.05 0.00 37 1018.5
20260503195403 18 259 1.6 4.8 0.00 0.05 0.00 41 1018.6
20260503194903 18 193 3.2 8.0 0.00 0.05 0.00 37 1018.7
20260503194403 18 296 0.0 4.8 0.00 0.05 0.00 42 1018.9
20260503193903 18 178 1.6 4.8 0.00 0.05 0.00 40 1018.9
20260503193404 18 188 3.2 8.0 0.00 0.05 0.00 40 1019.0
20260503192904 18 203 1.6 4.8 0.00 0.05 0.00 40 1019.0
20260503191904 17 303 1.6 4.8 0.00 0.05 0.00 39 1019.1
20260503190904 17 165 4.8 11.3 0.00 0.05 0.00 43 1019.3
20260503190403 17 220 1.6 4.8 0.00 0.05 0.00 46 1019.3
20260503185403 17 257 3.2 4.8 0.00 0.05 0.00 46 1019.4
20260503181403 16 206 1.6 8.0 0.00 0.05 0.00 50 1020.0
20260503180903 15 244 3.2 4.8 0.00 0.05 0.00 48 1020.0
20260503180404 15 166 3.2 9.7 0.00 0.05 0.00 50 1020.0
20260503175903 15 172 1.6 8.0 0.00 0.05 0.00 49 1020.0
20260503175403 15 174 1.6 4.8 0.00 0.05 0.00 47 1020.1
20260503174904 15 201 3.2 11.3 0.00 0.05 0.00 48 1020.1
20260503174403 15 304 1.6 8.0 0.00 0.05 0.00 44 1020.2
20260503173903 15 173 4.8 9.7 0.00 0.05 0.00 48 1020.3
20260503173403 15 197 3.2 8.0 0.00 0.05 0.00 48 1020.4
20260503172903 15 221 3.2 8.0 0.00 0.05 0.00 50 1020.4
20260503172403 15 309 0.0 4.8 0.00 0.05 0.00 54 1020.5
20260503171903 15 226 3.2 4.8 0.00 0.05 0.00 51 1020.6
20260503170904 15 219 3.2 8.0 0.00 0.05 0.00 52 1020.7
20260503170403 14 236 0.0 4.8 0.00 0.05 0.00 51 1020.7
20260503150903 13 226 1.6 4.8 0.00 0.05 0.00 56 1021.9
20260503150404 13 130 0.0 4.8 0.00 0.05 0.00 58 1021.9
20260503131403 6 154 3.2 4.8 0.00 0.05 0.00 61 1021.6
20260503130904 5 119 1.6 4.8 0.00 0.05 0.00 61 1021.6
20260503130403 5 114 1.6 4.8 0.00 0.05 0.00 62 1021.6
20260503110403 1 150 0.0 0.0 0.00 0.05 0.00 69 1020.6
20260503090403 2 165 0.0 0.0 0.00 0.05 0.00 70 1020.2
20260503081403 3 165 0.0 0.0 0.00 0.05 0.00 68 1020.0
20260503080903 3 165 0.0 0.0 0.00 0.05 0.00 68 1019.9
20260503080403 3 165 0.0 0.0 0.00 0.05 0.00 69 1019.9
20260503072904 4 165 0.0 0.0 0.00 0.05 0.00 68 1019.7
20260503072404 4 165 0.0 0.0 0.00 0.05 0.00 68 1019.8
20260503071904 4 166 0.0 0.0 0.00 0.05 0.00 67 1019.8
20260503071404 5 165 0.0 0.0 0.00 0.05 0.00 67 1019.7
20260503070904 5 165 0.0 0.0 0.00 0.05 0.00 68 1019.6
20260503070403 5 165 0.0 0.0 0.00 0.05 0.00 68 1019.6
20260503054904 6 165 0.0 0.0 0.00 0.05 0.00 68 1019.5
20260503054404 6 165 0.0 0.0 0.00 0.05 0.00 68 1019.5
20260503053904 6 165 0.0 0.0 0.00 0.05 0.00 68 1019.5
20260503053403 6 165 0.0 0.0 0.00 0.05 0.00 68 1019.5
20260503052404 6 165 0.0 0.0 0.00 0.05 0.00 67 1019.5
20260503051904 6 165 0.0 0.0 0.00 0.05 0.00 66 1019.5
20260503051403 6 165 0.0 0.0 0.00 0.05 0.00 66 1019.4
20260503050903 6 165 0.0 0.0 0.00 0.05 0.00 66 1019.4
20260503050403 6 165 0.0 0.0 0.00 0.05 0.00 66 1019.3
20260503045904 6 165 0.0 0.0 0.00 0.05 0.05 66 1019.2
20260503045403 6 165 0.0 0.0 0.00 0.05 0.05 67 1019.2
20260503044903 6 165 0.0 0.0 0.00 0.05 0.05 70 1019.2
20260503044403 6 165 0.0 0.0 0.00 0.05 0.05 70 1019.1
20260503043904 6 165 0.0 0.0 0.00 0.05 0.05 71 1019.1
20260503043403 6 165 0.0 0.0 0.00 0.05 0.05 71 1019.1
20260503042903 6 165 0.0 0.0 0.00 0.05 0.05 71 1019.1
20260503041903 6 165 0.0 0.0 0.00 0.05 0.05 71 1019.0
20260503041404 6 165 0.0 0.0 0.00 0.05 0.05 71 1019.0
20260503040904 6 165 0.0 0.0 0.00 0.05 0.05 71 1018.9
20260503040404 6 165 0.0 0.0 0.00 0.05 0.05 70 1018.9
20260503035904 7 165 0.0 0.0 0.00 0.05 0.05 69 1018.9
20260503035403 7 165 0.0 0.0 0.00 0.05 0.05 69 1018.9
20260503034904 7 165 0.0 0.0 0.00 0.05 0.05 70 1018.8
20260503034403 7 165 0.0 0.0 0.00 0.05 0.05 71 1018.8
20260503033903 7 165 0.0 0.0 0.00 0.05 0.05 72 1018.8
20260503033404 7 165 0.0 0.0 0.00 0.05 0.05 73 1018.8
20260503032403 7 165 0.0 0.0 0.00 0.05 0.05 75 1018.8
20260503031904 7 165 0.0 0.0 0.00 0.05 0.05 75 1018.8
20260503030904 7 165 0.0 0.0 0.00 0.05 0.05 75 1018.9
20260503030403 7 165 0.0 0.0 0.00 0.05 0.05 75 1018.9
20260503025404 7 165 0.0 0.0 0.00 0.05 0.05 76 1018.9
20260503024904 7 165 0.0 0.0 0.00 0.05 0.05 75 1018.8
20260503024404 7 165 0.0 0.0 0.03 0.05 0.05 76 1018.8
20260503023903 7 165 0.0 0.0 0.03 0.05 0.05 75 1018.7
20260503023403 7 165 0.0 0.0 0.03 0.05 0.05 75 1018.8
20260503022903 7 165 0.0 0.0 0.03 0.05 0.05 77 1018.8
20260503022403 7 165 0.0 0.0 0.03 0.05 0.05 79 1018.7
20260503021404 7 165 0.0 0.0 0.03 0.05 0.05 76 1018.7
20260503020903 7 165 0.0 0.0 0.03 0.05 0.05 76 1018.6
20260503020403 7 165 0.0 0.0 0.03 0.05 0.05 79 1018.6
20260503015904 8 165 0.0 0.0 0.03 0.05 0.05 80 1018.5
20260503015403 8 165 0.0 0.0 0.03 0.05 0.05 80 1018.3